Location: Blanot
(47.1713°N, 4.2340°E)
Time: 20:21:11
(UTC+00:00)

Abrixas rocket - Pass Details

Date: 14 July 2020
Orbit: 338 x 346 km, 48.4° (Epoch: 13 August)

Event Time Altitude Azimuth Distance (km) Brightness Sun altitude
Exits shadow 01:34:26 27° 287° (WNW) 693 3.2 -17.2°
Maximum altitude 01:35:49 76° 9° (N) 352 1.9 -17.1°
Drops below altitude 10° 01:38:40 10° 97° (E) 1,279 4.9 -16.9°
Sets 01:40:40 0° 99° (E) 2,116 6.1 -16.7°
